Terminal Aerodrome Forecast
Issued by NWS

Current Version | Previous Version | Text Only | Print | Product List | Glossary Off
Versions: 1 2 3 4 5 6 7 8 9 10 11 12 13 14 15 16

784
FTUS41 KPBZ 191126
TAFMGW
TAF
KMGW 191126Z 1912/2012 28011G20KT P6SM OVC020
     FM200400 26010G20KT P6SM BKN035=

USA.gov is the U.S. government's official web portal to all federal, state and local government web resources and services.